CW2888 Weather Reports


Display with metric or nautical units.
time (UTC)temp
F
wind
direction
speed
MPH
gust
MPH
rain 1hr
in
rain 24hr
in
rain mn
in
humidity
%
barometer
mb
20260507143809 56 284 1.0 3.0 0.01 0.01 0.01 69 1014.8
20260507143308 57 277 1.0 2.0 0.00 0.00 0.00 67 1014.8
20260507142808 57 276 1.0 2.0 0.00 0.00 0.00 66 1014.9
20260507141808 57 168 0.0 0.0 0.00 0.00 0.00 65 1014.9
20260507141309 57 168 0.0 2.0 0.00 0.00 0.00 64 1014.9
20260507140809 57 168 1.0 2.0 0.00 0.00 0.00 64 1015.0
20260507140309 58 167 1.0 5.0 0.00 0.00 0.00 64 1015.0
20260507135809 58 194 1.0 2.0 0.00 0.00 0.00 63 1015.0
20260507135309 58 156 2.0 3.0 0.00 0.00 0.00 62 1014.9
20260507134809 58 144 2.0 5.0 0.00 0.00 0.00 60 1015.0
20260507134309 58 206 3.0 5.0 0.00 0.00 0.00 58 1015.0
20260507133809 58 144 4.0 8.0 0.00 0.00 0.00 58 1015.0
20260507133308 58 175 4.0 9.0 0.00 0.00 0.00 58 1015.0
20260507132808 58 164 4.0 8.0 0.00 0.00 0.00 58 1014.9
20260507132308 58 210 3.0 5.0 0.00 0.00 0.00 58 1015.0
20260507131309 58 226 4.0 7.0 0.00 0.00 0.00 57 1015.0
20260507130809 58 181 3.0 8.0 0.00 0.00 0.00 57 1015.0
20260507130309 59 223 4.0 8.0 0.00 0.00 0.00 56 1015.0
20260507125809 59 225 3.0 7.0 0.00 0.00 0.00 57 1015.0
20260507125309 59 218 3.0 7.0 0.00 0.00 0.00 56 1015.0
20260507124309 58 227 3.0 12.0 0.00 0.00 0.00 57 1015.0
20260507123809 58 224 2.0 7.0 0.00 0.00 0.00 57 1015.0
20260507122808 58 109 2.0 6.0 0.00 0.00 0.00 55 1015.0
20260507122309 58 197 3.0 7.0 0.00 0.00 0.00 54 1015.0
20260507121808 59 120 3.0 7.0 0.00 0.00 0.00 54 1015.0
20260507121308 59 188 2.0 8.0 0.00 0.00 0.00 55 1015.0
20260507120808 59 201 2.0 6.0 0.00 0.00 0.00 56 1015.0
20260507115808 58 193 5.0 9.0 0.00 0.00 0.00 57 1015.1
20260507115309 58 128 3.0 7.0 0.00 0.00 0.00 58 1015.1
20260507114809 58 145 5.0 9.0 0.00 0.00 0.00 59 1015.2
20260507114309 58 175 3.0 8.0 0.00 0.00 0.00 57 1015.1
20260507113308 58 167 3.0 9.0 0.00 0.00 0.00 58 1015.1
20260507112808 58 149 3.0 9.0 0.00 0.00 0.00 59 1015.2
20260507112309 58 111 3.0 7.0 0.00 0.00 0.00 59 1015.1
20260507111309 58 127 5.0 8.0 0.00 0.00 0.00 62 1015.1
20260507110809 58 152 3.0 7.0 0.00 0.00 0.00 62 1015.2
20260507110308 58 112 5.0 14.0 0.00 0.00 0.00 62 1015.3
20260507105809 58 115 5.0 12.0 0.00 0.00 0.00 63 1015.2
20260507105308 58 133 3.0 8.0 0.00 0.00 0.00 62 1015.3
20260507104808 58 118 4.0 8.0 0.00 0.00 0.00 62 1015.3
20260507103808 60 145 2.0 7.0 0.00 0.00 0.00 61 1015.4
20260507103308 59 118 3.0 9.0 0.00 0.00 0.00 64 1015.4
20260507102809 59 192 3.0 9.0 0.00 0.00 0.00 62 1015.4
20260507102309 58 231 3.0 8.0 0.00 0.00 0.00 63 1015.5
20260507101809 58 172 2.0 7.0 0.00 0.00 0.00 66 1015.6
20260507101308 58 149 5.0 9.0 0.00 0.00 0.00 64 1015.6
20260507100808 58 142 3.0 8.0 0.00 0.00 0.00 65 1015.6
20260507095808 57 171 5.0 12.0 0.00 0.00 0.00 65 1015.7
20260507095309 57 138 4.0 7.0 0.00 0.00 0.00 64 1015.6
20260507094809 56 139 3.0 7.0 0.00 0.00 0.00 65 1015.6
20260507094309 56 122 3.0 6.0 0.00 0.00 0.00 70 1015.6
20260507093809 55 125 5.0 8.0 0.00 0.00 0.00 69 1015.5
20260507093309 55 128 2.0 5.0 0.00 0.00 0.00 70 1015.6
20260507092809 54 121 6.0 8.0 0.00 0.00 0.00 71 1015.5
20260507092309 54 91 4.0 8.0 0.00 0.00 0.00 71 1015.5
20260507091808 54 84 4.0 8.0 0.00 0.00 0.00 72 1015.6
20260507091308 53 107 3.0 8.0 0.00 0.00 0.00 71 1015.6
20260507090809 53 85 3.0 9.0 0.00 0.00 0.00 72 1015.7
20260507090309 53 115 3.0 6.0 0.00 0.00 0.00 73 1015.7
20260507085809 52 125 3.0 5.0 0.00 0.00 0.00 74 1015.7
20260507085309 52 128 3.0 6.0 0.00 0.00 0.00 74 1015.7
20260507084808 51 127 3.0 8.0 0.00 0.00 0.00 75 1015.7
20260507084308 51 114 3.0 6.0 0.00 0.00 0.00 75 1015.7
20260507083809 51 107 1.0 6.0 0.00 0.00 0.00 76 1015.7
20260507083311 51 97 2.0 5.0 0.00 0.00 0.00 77 1015.7
20260507082841 50 141 2.0 5.0 0.00 0.00 0.00 76 1015.8
20260507081808 49 99 2.0 5.0 0.00 0.00 0.00 78 1015.7
20260507081309 49 63 2.0 5.0 0.00 0.00 0.00 78 1015.7
20260507080808 49 82 3.0 5.0 0.00 0.00 0.00 78 1015.6
20260507080309 49 110 3.0 5.0 0.00 0.00 0.00 79 1015.6
20260507075309 48 77 2.0 5.0 0.00 0.00 0.00 80 1015.5
20260507074808 48 58 2.0 3.0 0.00 0.00 0.00 80 1015.5
20260507074308 48 123 1.0 3.0 0.00 0.00 0.00 81 1015.5
20260507073809 48 60 1.0 2.0 0.00 0.00 0.00 81 1015.5
20260507073308 48 94 1.0 2.0 0.00 0.00 0.00 81 1015.5
20260507072809 47 80 2.0 3.0 0.00 0.00 0.00 81 1015.4
20260507071809 47 77 2.0 5.0 0.00 0.00 0.00 82 1015.3
20260507071309 47 78 1.0 5.0 0.00 0.00 0.00 82 1015.3
20260507070309 47 92 3.0 7.0 0.00 0.00 0.00 82 1015.3
20260507065308 46 75 2.0 7.0 0.00 0.00 0.00 83 1015.2
20260507064808 46 78 3.0 3.0 0.00 0.00 0.00 83 1015.2
20260507064309 46 93 2.0 3.0 0.00 0.00 0.00 83 1015.3
20260507063808 46 114 2.0 3.0 0.00 0.00 0.00 83 1015.3
20260507062809 46 109 1.0 6.0 0.00 0.00 0.00 83 1015.2
20260507062309 46 98 2.0 5.0 0.00 0.00 0.00 83 1015.2
20260507061809 46 91 2.0 3.0 0.00 0.00 0.00 83 1015.1
20260507061308 46 92 2.0 7.0 0.00 0.00 0.00 83 1015.1
20260507060308 46 95 1.0 5.0 0.00 0.00 0.00 83 1015.1
20260507055809 46 92 4.0 6.0 0.00 0.00 0.00 83 1015.0
20260507055309 46 89 2.0 5.0 0.00 0.00 0.00 84 1015.0
20260507054808 46 97 2.0 6.0 0.00 0.00 0.00 84 1014.9
20260507054308 46 79 2.0 6.0 0.00 0.00 0.00 84 1014.9
20260507053809 46 100 2.0 3.0 0.00 0.00 0.00 84 1014.9
20260507053308 45 83 2.0 5.0 0.00 0.00 0.00 84 1014.9
20260507052809 45 85 1.0 3.0 0.00 0.00 0.00 84 1014.9
20260507051309 45 85 3.0 5.0 0.00 0.00 0.00 84 1014.9
20260507050808 45 90 3.0 5.0 0.00 0.00 0.00 84 1014.9
20260507050309 45 95 2.0 5.0 0.00 0.00 0.00 84 1014.9
20260507045808 45 78 2.0 5.0 0.00 0.00 0.00 84 1014.9
20260507045309 45 71 2.0 5.0 0.00 0.00 0.00 84 1014.9
20260507044808 45 45 2.0 5.0 0.00 0.00 0.00 84 1014.9
20260507044309 45 50 1.0 3.0 0.00 0.00 0.00 84 1014.9
20260507042809 45 76 1.0 2.0 0.00 0.00 0.00 83 1014.8
20260507042308 45 85 2.0 5.0 0.00 0.00 0.00 83 1014.8
20260507041808 46 71 1.0 3.0 0.00 0.00 0.00 83 1014.9
20260507041309 46 64 2.0 3.0 0.00 0.00 0.00 83 1014.8
20260507040809 46 74 2.0 5.0 0.00 0.00 0.00 83 1014.8
20260507035808 46 81 3.0 6.0 0.00 0.00 0.00 82 1014.9
20260507035309 46 88 2.0 5.0 0.00 0.00 0.00 82 1014.9
20260507034808 46 80 2.0 5.0 0.00 0.00 0.00 82 1014.9
20260507034308 46 71 2.0 3.0 0.00 0.00 0.00 82 1014.9
20260507033809 46 65 3.0 6.0 0.00 0.00 0.00 82 1014.9
20260507033309 46 75 2.0 7.0 0.00 0.00 0.00 81 1014.9
20260507032809 46 84 2.0 5.0 0.00 0.00 0.00 81 1014.9
20260507032308 46 85 3.0 5.0 0.00 0.00 0.00 81 1014.9
20260507031309 46 95 3.0 8.0 0.00 0.00 0.00 81 1015.0
20260507030809 46 78 3.0 8.0 0.00 0.00 0.00 80 1014.9
20260507030309 46 80 3.0 8.0 0.00 0.00 0.00 80 1015.0
20260507025309 46 89 3.0 8.0 0.00 0.00 0.00 80 1014.9
20260507024809 47 81 3.0 7.0 0.00 0.00 0.00 80 1014.9
20260507024308 47 82 3.0 5.0 0.00 0.00 0.00 80 1014.9
20260507023809 47 77 2.0 6.0 0.00 0.00 0.00 80 1014.9
20260507023309 47 87 2.0 6.0 0.00 0.00 0.00 79 1014.9
20260507022809 47 92 3.0 7.0 0.00 0.00 0.00 79 1014.9
20260507022309 47 93 2.0 6.0 0.00 0.00 0.00 79 1014.9
20260507021808 47 80 4.0 6.0 0.00 0.00 0.00 79 1014.9
20260507021308 47 102 1.0 5.0 0.00 0.00 0.00 79 1014.9
20260507020808 47 114 3.0 5.0 0.00 0.00 0.00 79 1014.9
20260507020308 47 71 2.0 5.0 0.00 0.00 0.00 79 1014.9
20260507015809 47 91 3.0 6.0 0.00 0.00 0.00 79 1014.9
20260507015308 47 86 2.0 6.0 0.00 0.00 0.00 78 1014.9
20260507014808 47 91 5.0 8.0 0.00 0.00 0.00 78 1014.9
20260507013308 47 88 4.0 7.0 0.00 0.00 0.00 78 1014.9
20260507012808 47 86 3.0 7.0 0.00 0.00 0.00 78 1014.9
20260507012309 47 83 3.0 5.0 0.00 0.00 0.00 78 1014.9
20260507011809 47 90 3.0 5.0 0.00 0.00 0.00 78 1014.9
20260507010809 47 90 3.0 6.0 0.00 0.00 0.00 78 1014.9
20260507010309 48 75 2.0 3.0 0.00 0.00 0.00 78 1014.9
20260507005808 48 99 3.0 5.0 0.00 0.00 0.00 77 1014.9
20260507005308 48 88 4.0 7.0 0.00 0.00 0.00 77 1014.9
20260507004808 48 96 3.0 6.0 0.00 0.00 0.00 77 1014.8
20260507004309 48 81 2.0 8.0 0.00 0.00 0.00 77 1014.9
20260507003808 48 82 2.0 7.0 0.00 0.00 0.00 77 1014.9
20260507003308 48 91 3.0 8.0 0.00 0.00 0.00 77 1014.9
20260507002808 48 102 5.0 10.0 0.00 0.00 0.00 76 1014.9
20260507002308 48 89 4.0 10.0 0.00 0.00 0.00 76 1015.0
20260507001809 48 88 4.0 8.0 0.00 0.00 0.00 76 1015.0
20260507001309 48 99 3.0 9.0 0.00 0.00 0.00 75 1015.0
20260507000808 48 90 3.0 8.0 0.00 0.00 0.00 75 1015.1
20260507000308 48 85 3.0 7.0 0.00 0.00 0.00 74 1015.1
20260506234809 49 109 2.0 7.0 0.00 0.00 0.00 73 1015.1
20260506234309 49 87 3.0 6.0 0.00 0.00 0.00 73 1015.0
20260506233808 49 87 3.0 10.0 0.00 0.00 0.00 72 1015.0
20260506233309 49 83 3.0 8.0 0.00 0.00 0.00 72 1015.0
20260506232308 49 84 3.0 8.0 0.00 0.00 0.00 71 1015.0
20260506231809 49 96 4.0 8.0 0.00 0.00 0.00 71 1015.0
20260506231309 49 87 4.0 9.0 0.00 0.00 0.00 71 1015.1
20260506230308 49 88 7.0 12.0 0.00 0.00 0.00 70 1015.0
20260506225808 49 85 4.0 10.0 0.00 0.00 0.00 70 1015.0
20260506225309 49 95 4.0 9.0 0.00 0.00 0.00 69 1015.0
20260506224309 49 94 3.0 9.0 0.00 0.00 0.00 68 1015.0
20260506223809 49 90 3.0 9.0 0.00 0.00 0.00 68 1015.0
20260506223309 50 81 3.0 9.0 0.00 0.00 0.00 67 1014.9
20260506222809 50 83 4.0 8.0 0.00 0.00 0.00 66 1014.9
20260506222308 50 85 3.0 7.0 0.00 0.00 0.00 66 1014.9
20260506220808 50 83 3.0 7.0 0.00 0.00 0.00 64 1014.8
20260506215809 51 88 3.0 5.0 0.00 0.00 0.00 63 1014.8
20260506215308 51 94 4.0 8.0 0.00 0.00 0.00 63 1014.8
20260506214809 51 88 3.0 6.0 0.00 0.00 0.00 62 1014.8
20260506213808 51 96 3.0 7.0 0.00 0.00 0.00 61 1014.8
20260506213308 51 89 2.0 5.0 0.00 0.00 0.00 61 1014.8
20260506212809 51 100 2.0 5.0 0.00 0.00 0.00 61 1014.7
20260506212309 52 96 2.0 3.0 0.00 0.00 0.00 60 1014.7
20260506211809 52 83 2.0 7.0 0.00 0.00 0.00 60 1014.7
20260506211309 52 93 2.0 5.0 0.00 0.00 0.00 60 1014.6
20260506210808 52 95 1.0 3.0 0.00 0.00 0.00 59 1014.5
20260506210309 52 98 2.0 3.0 0.00 0.00 0.00 59 1014.5
20260506205808 52 87 2.0 5.0 0.00 0.00 0.00 58 1014.4
20260506205309 52 84 2.0 7.0 0.00 0.00 0.00 58 1014.4
20260506204809 52 91 2.0 3.0 0.00 0.00 0.00 58 1014.4
20260506204308 52 91 3.0 7.0 0.00 0.00 0.00 57 1014.5
20260506202308 53 79 2.0 5.0 0.00 0.00 0.00 55 1014.4
20260506201808 54 96 2.0 7.0 0.00 0.00 0.00 55 1014.3
20260506201309 54 97 2.0 6.0 0.00 0.00 0.00 54 1014.2
20260506200808 54 98 2.0 5.0 0.00 0.00 0.00 54 1014.2
20260506200308 54 87 3.0 8.0 0.00 0.00 0.00 53 1014.1
20260506195308 55 80 3.0 6.0 0.00 0.00 0.00 53 1013.8
20260506194808 55 71 2.0 5.0 0.00 0.00 0.00 52 1013.7
20260506194308 55 77 2.0 3.0 0.00 0.00 0.00 52 1013.8
20260506193808 55 57 1.0 3.0 0.00 0.00 0.00 52 1013.8
20260506193308 55 31 1.0 2.0 0.00 0.00 0.00 52 1013.8
20260506192808 55 23 1.0 3.0 0.00 0.00 0.00 51 1013.8
20260506192308 56 31 2.0 3.0 0.00 0.00 0.00 51 1013.8
20260506191808 56 23 2.0 3.0 0.00 0.00 0.00 50 1013.8
20260506191308 56 38 1.0 3.0 0.00 0.00 0.00 50 1013.8
20260506190808 56 32 2.0 5.0 0.00 0.00 0.00 50 1013.7
20260506185808 56 63 2.0 3.0 0.00 0.00 0.00 49 1013.7
20260506185308 56 70 2.0 5.0 0.00 0.00 0.00 48 1013.6
20260506184809 56 25 1.0 6.0 0.00 0.00 0.00 49 1013.6
20260506184308 57 40 2.0 5.0 0.00 0.00 0.00 49 1013.7
20260506183808 57 15 2.0 6.0 0.00 0.00 0.00 48 1013.6
20260506183308 57 44 1.0 6.0 0.00 0.00 0.00 49 1013.6
20260506182809 57 12 2.0 5.0 0.00 0.00 0.00 49 1013.6
20260506181808 57 15 2.0 6.0 0.00 0.00 0.00 48 1013.6
20260506181309 57 19 2.0 8.0 0.00 0.00 0.00 48 1013.6
20260506180808 57 14 3.0 7.0 0.00 0.00 0.00 48 1013.5
20260506180308 57 46 2.0 7.0 0.00 0.00 0.00 48 1013.4
20260506175808 57 354 2.0 6.0 0.00 0.00 0.00 48 1013.4
20260506175309 57 10 2.0 9.0 0.00 0.00 0.00 48 1013.3
20260506174809 57 26 3.0 9.0 0.00 0.00 0.00 48 1013.3
20260506174308 57 72 4.0 10.0 0.00 0.00 0.00 47 1013.2
20260506173808 58 83 3.0 9.0 0.00 0.00 0.00 47 1013.2
20260506173308 58 77 3.0 7.0 0.00 0.00 0.00 48 1013.2
20260506172809 58 34 4.0 9.0 0.00 0.00 0.00 48 1013.2
20260506172309 58 63 2.0 6.0 0.00 0.00 0.00 48 1013.2
20260506171808 58 44 2.0 6.0 0.00 0.00 0.00 47 1013.1
20260506170808 58 83 2.0 3.0 0.00 0.00 0.00 46 1013.0
20260506165809 59 30 2.0 6.0 0.00 0.00 0.00 45 1013.1
20260506165309 59 53 3.0 6.0 0.00 0.00 0.00 45 1013.1
20260506164808 59 50 2.0 7.0 0.00 0.00 0.00 45 1013.1
20260506164309 60 79 3.0 6.0 0.00 0.00 0.00 44 1013.1
20260506163809 60 17 3.0 8.0 0.00 0.00 0.00 44 1013.0
20260506162808 59 62 1.0 6.0 0.00 0.00 0.00 44 1013.0
20260506162309 59 317 2.0 6.0 0.00 0.00 0.00 44 1013.0
20260506161808 59 65 3.0 6.0 0.00 0.00 0.00 45 1013.0
20260506160808 58 290 2.0 3.0 0.00 0.00 0.00 48 1013.1
20260506160309 58 81 3.0 7.0 0.00 0.00 0.00 48 1013.1
20260506155808 58 22 2.0 7.0 0.00 0.00 0.00 48 1013.1
20260506154308 59 308 1.0 6.0 0.00 0.00 0.00 48 1013.1
20260506153809 60 31 3.0 9.0 0.00 0.00 0.00 49 1013.1
20260506153308 60 341 2.0 6.0 0.00 0.00 0.00 47 1013.2
20260506152808 60 22 5.0 9.0 0.00 0.00 0.00 47 1013.2
20260506151808 60 38 3.0 8.0 0.00 0.00 0.00 49 1013.3
20260506151309 60 288 3.0 7.0 0.00 0.00 0.00 49 1013.3
20260506150309 60 80 3.0 8.0 0.00 0.00 0.00 48 1013.3
20260506145308 59 342 2.0 5.0 0.00 0.00 0.00 50 1013.5
20260506144808 58 70 3.0 8.0 0.00 0.00 0.00 50 1013.5
20260506144308 58 20 2.0 10.0 0.00 0.00 0.00 48 1013.5